INTELSAT 29E (IS-29E) (41308 NORAD) Tracking and Keplerian Element Data

This shows tracking and keplerian element data for the satellite.

Feedback or suggestion? Click here.




ElementValue
Catalog41308
NameINTELSAT 29E (IS-29E)
Epoch Orbit1283
Epoch Day199.23729708
Epoch Year2019
RAAN98.2789
Inclination0.2586
Eccentricity0.0023481
Argument of Perigee313.7683
Mean Anonmoly35.1956
Mean Motion1.00612725
Decay Rate-8.7E-07
L11 41308U 16004A 19199.23729708 -.00000087 00000-0 00000+0 0 9999
L22 41308 0.2586 98.2789 0023481 313.7683 35.1956 1.00612725 12838

Live tracking and technical data element details for INTELSAT 29E (IS-29E) (NORAD 41308). INTELSAT 29E (IS-29E) can be tracked NOW for your location showing map with azimuth and elevation plus other details from your city location.

Track the satellite on the map from your city or location and see movement details for azimuth, elevation, latitude, longitude, range, height, and movement on the map or in text.







IsCatalogInMostPopularTable: catalog: 41308, numindb: 492
Update: records affected: 1



GetName: 41308 INTELSAT 29E (IS-29E)

Hit Count: updated at: Fri, 19 Jul 2019 08:50:36 GMT